Location: Unspecified
(48.5539°N, 71.6350°W)
Time: 18:43:40
(UTC-04:00)

ISS - Pass Details

Date: 01 June 2019
Orbit: 408 x 418 km, 51.6° (Epoch: 19 June)

Event Time Altitude Azimuth Distance (km) Brightness Sun altitude
Rises 22:40:00 0° 285° (WNW) 2,358 0.8 -14.0°
Reaches altitude 10° 22:42:33 10° 266° (W) 1,493 -0.6 -14.2°
Maximum altitude 22:44:52 18° 222° (SW) 1,113 -1.8 -14.4°
Enters shadow 22:45:35 17° 205° (SSW) 1,153 -1.9 -14.5°
